Time,TemperatureF,DewpointF,PressureIn,WindDirection,WindDirectionDegrees,WindSpeedMPH,WindSpeedGustMPH,Humidity,HourlyPrecipIn,Conditions,Clouds,dailyrainin,SoftwareType,DateUTC
2013-09-01 00:03:00,-999.0,-99.9,29.83,SW,215,2.0,8.0,-999,-99.99,,,-99.99,,2013-09-01 04:03:00,
2013-09-01 00:25:00,76.0,69.0,29.83,SW,219,0.0,3.0,79,0.00,,,0.00,,2013-09-01 04:25:00,
2013-09-01 00:54:00,75.0,69.0,29.83,West,265,0.0,4.0,81,0.00,,,0.00,,2013-09-01 04:54:00,
2013-09-01 01:23:00,74.0,68.0,29.84,SSW,202,0.0,4.0,83,0.00,,,0.00,,2013-09-01 05:23:00,
2013-09-01 01:52:00,73.0,68.0,29.83,SSW,202,1.0,8.0,85,0.00,,,0.00,,2013-09-01 05:52:00,
2013-09-01 02:22:00,73.0,69.0,29.82,SSW,194,1.0,6.0,86,0.00,,,0.00,,2013-09-01 06:22:00,
2013-09-01 02:42:00,73.0,69.0,29.82,South,190,0.0,0.0,87,0.00,,,0.00,,2013-09-01 06:42:00,
2013-09-01 02:52:00,73.0,69.0,29.81,South,191,0.0,2.0,87,0.00,,,0.00,,2013-09-01 06:52:00,
2013-09-01 03:22:00,73.0,69.0,29.80,SSW,200,1.0,6.0,87,0.00,,,0.00,,2013-09-01 07:22:00,
2013-09-01 03:52:00,72.0,68.0,29.80,SSW,194,0.0,0.0,87,0.00,,,0.00,,2013-09-01 07:52:00,
2013-09-01 04:11:00,72.0,68.0,29.80,SSW,194,0.0,0.0,88,0.00,,,0.00,,2013-09-01 08:11:00,
2013-09-01 04:22:00,72.0,69.0,29.80,SSW,194,0.0,2.0,89,0.00,,,0.00,,2013-09-01 08:22:00,
2013-09-01 04:52:00,71.0,68.0,29.80,SSW,197,0.0,0.0,89,0.00,,,0.00,,2013-09-01 08:52:00,
2013-09-01 05:22:00,71.0,68.0,29.81,SSW,197,0.0,0.0,90,0.00,,,0.00,,2013-09-01 09:22:00,
2013-09-01 05:53:00,70.0,67.0,29.82,SSW,197,0.0,0.0,90,0.00,,,0.00,,2013-09-01 09:53:00,
2013-09-01 06:23:00,71.0,68.0,29.82,WSW,244,0.0,0.0,90,0.00,,,0.00,,2013-09-01 10:23:00,
2013-09-01 06:53:00,71.0,68.0,29.83,WSW,244,0.0,0.0,90,0.00,,,0.00,,2013-09-01 10:53:00,
2013-09-01 07:12:00,70.0,67.0,29.82,WSW,245,0.0,1.0,90,0.00,,,0.00,,2013-09-01 11:12:00,
2013-09-01 07:22:00,70.0,67.0,29.83,WSW,245,0.0,0.0,90,0.00,,,0.00,,2013-09-01 11:22:00,
2013-09-01 07:52:00,71.0,68.0,29.83,WSW,244,0.0,1.0,90,0.00,,,0.00,,2013-09-01 11:52:00,
2013-09-01 08:12:00,71.0,68.0,29.83,WSW,244,0.0,2.0,90,0.00,,,0.00,,2013-09-01 12:12:00,
2013-09-01 08:22:00,72.0,69.0,29.83,WSW,244,0.0,1.0,89,0.00,,,0.00,,2013-09-01 12:22:00,
2013-09-01 08:52:00,72.0,68.0,29.83,WNW,295,0.0,4.0,88,0.00,,,0.00,,2013-09-01 12:52:00,
2013-09-01 09:11:00,73.0,69.0,29.84,WNW,294,0.0,3.0,88,0.00,,,0.00,,2013-09-01 13:11:00,
2013-09-01 09:21:00,73.0,69.0,29.85,WNW,294,0.0,0.0,87,0.00,,,0.00,,2013-09-01 13:21:00,
2013-09-01 09:52:00,75.0,70.0,29.84,South,191,0.0,1.0,85,0.00,,,0.00,,2013-09-01 13:52:00,
2013-09-01 10:11:00,76.0,70.0,29.85,West,262,0.0,5.0,83,0.00,,,0.00,,2013-09-01 14:11:00,
2013-09-01 10:22:00,77.0,70.0,29.85,West,264,0.0,3.0,80,0.00,,,0.00,,2013-09-01 14:22:00,
2013-09-01 10:52:00,79.0,71.0,29.84,West,265,0.0,0.0,77,0.00,,,0.00,,2013-09-01 14:52:00,
2013-09-01 11:11:00,80.0,72.0,29.84,West,270,0.0,0.0,76,0.00,,,0.00,,2013-09-01 15:11:00,
2013-09-01 11:23:00,82.0,72.0,29.84,West,269,0.0,1.0,72,0.00,,,0.00,,2013-09-01 15:23:00,
2013-09-01 11:45:00,83.0,73.0,29.84,SSW,202,0.0,1.0,72,0.00,,,0.00,,2013-09-01 15:45:00,
2013-09-01 11:55:00,84.0,73.0,29.83,WSW,254,0.0,0.0,70,0.00,,,0.00,,2013-09-01 15:55:00,
2013-09-01 12:14:00,84.0,72.0,29.83,WSW,254,0.0,0.0,68,0.00,,,0.00,,2013-09-01 16:14:00,
2013-09-01 12:24:00,85.0,73.0,29.82,SE,129,0.0,1.0,68,0.00,,,0.00,,2013-09-01 16:24:00,
2013-09-01 12:53:00,88.0,73.0,29.81,East,94,0.0,1.0,62,0.00,,,0.00,,2013-09-01 16:53:00,
2013-09-01 13:12:00,87.0,72.0,29.81,South,172,0.0,1.0,62,0.00,,,0.00,,2013-09-01 17:12:00,
2013-09-01 13:23:00,87.0,72.0,29.80,WSW,240,0.0,1.0,62,0.00,,,0.00,,2013-09-01 17:23:00,
2013-09-01 13:52:00,88.0,72.0,29.80,SW,219,2.0,5.0,59,0.00,,,0.00,,2013-09-01 17:52:00,
2013-09-01 14:13:00,88.0,73.0,29.80,SSW,199,1.0,12.0,62,0.00,,,0.00,,2013-09-01 18:13:00,
2013-09-01 14:22:00,88.0,73.0,29.80,South,191,0.0,7.0,62,0.00,,,0.00,,2013-09-01 18:22:00,
2013-09-01 14:42:00,89.0,73.0,29.79,SSW,207,0.0,6.0,60,0.00,,,0.00,,2013-09-01 18:42:00,
2013-09-01 14:52:00,90.0,74.0,29.78,SSW,206,0.0,3.0,59,0.00,,,0.00,,2013-09-01 18:52:00,
2013-09-01 15:12:00,91.0,74.0,29.78,SSW,207,0.0,7.0,58,0.00,,,0.00,,2013-09-01 19:12:00,
2013-09-01 15:22:00,90.0,72.0,29.77,WSW,256,0.0,8.0,56,0.00,,,0.00,,2013-09-01 19:22:00,
2013-09-01 15:52:00,91.0,73.0,29.76,SW,220,0.0,1.0,56,0.00,,,0.00,,2013-09-01 19:52:00,
2013-09-01 16:12:00,91.0,73.0,29.76,South,190,0.0,7.0,55,0.00,,,0.00,,2013-09-01 20:12:00,
2013-09-01 16:22:00,90.0,72.0,29.76,SSW,194,1.0,7.0,55,0.00,,,0.00,,2013-09-01 20:22:00,
2013-09-01 16:42:00,89.0,71.0,29.76,SE,140,1.0,8.0,55,0.00,,,0.00,,2013-09-01 20:42:00,
2013-09-01 16:52:00,89.0,72.0,29.76,South,187,1.0,8.0,57,0.00,,,0.00,,2013-09-01 20:52:00,
2013-09-01 17:22:00,88.0,71.0,29.76,South,186,0.0,7.0,58,0.00,,,0.00,,2013-09-01 21:22:00,
2013-09-01 17:55:00,87.0,69.0,29.76,South,183,1.0,9.0,56,0.00,,,0.00,,2013-09-01 21:55:00,
2013-09-01 18:15:00,86.0,70.0,29.76,SW,221,1.0,10.0,59,0.00,,,0.00,,2013-09-01 22:15:00,
2013-09-01 18:24:00,86.0,71.0,29.76,SSW,207,1.0,6.0,61,0.00,,,0.00,,2013-09-01 22:24:00,
2013-09-01 18:53:00,85.0,72.0,29.75,South,190,1.0,9.0,66,0.00,,,0.00,,2013-09-01 22:53:00,
2013-09-01 19:23:00,85.0,74.0,29.76,SSW,199,2.0,8.0,69,0.00,,,0.00,,2013-09-01 23:23:00,
2013-09-01 19:53:00,84.0,73.0,29.75,SSW,207,0.0,6.0,70,0.00,,,0.00,,2013-09-01 23:53:00,
2013-09-01 20:11:00,84.0,74.0,29.76,SSW,199,0.0,6.0,71,0.00,,,0.00,,2013-09-02 00:11:00,
2013-09-01 20:22:00,83.0,73.0,29.76,SSW,200,0.0,4.0,73,0.00,,,0.00,,2013-09-02 00:22:00,
2013-09-01 20:42:00,83.0,74.0,29.76,SSW,200,0.0,0.0,74,0.00,,,0.00,,2013-09-02 00:42:00,
2013-09-01 20:52:00,83.0,74.0,29.77,SSW,200,0.0,1.0,74,0.00,,,0.00,,2013-09-02 00:52:00,
2013-09-01 21:12:00,83.0,74.0,29.77,SSW,200,0.0,0.0,75,0.00,,,0.00,,2013-09-02 01:12:00,
2013-09-01 21:22:00,82.0,74.0,29.78,SSW,200,0.0,0.0,76,0.00,,,0.00,,2013-09-02 01:22:00,
2013-09-01 21:42:00,82.0,74.0,29.78,SSW,200,0.0,3.0,76,0.00,,,0.00,,2013-09-02 01:42:00,
2013-09-01 21:52:00,82.0,74.0,29.78,SSW,201,0.0,3.0,77,0.00,,,0.00,,2013-09-02 01:52:00,
2013-09-01 22:22:00,82.0,74.0,29.79,SSW,200,0.0,0.0,78,0.00,,,0.00,,2013-09-02 02:22:00,
2013-09-01 22:42:00,82.0,74.0,29.79,SSW,200,0.0,0.0,78,0.00,,,0.00,,2013-09-02 02:42:00,
2013-09-01 22:52:00,81.0,74.0,29.79,SSW,201,0.0,0.0,79,0.00,,,0.00,,2013-09-02 02:52:00,
2013-09-01 23:11:00,81.0,74.0,29.79,SSW,201,0.0,0.0,79,0.00,,,0.00,,2013-09-02 03:11:00,
2013-09-01 23:22:00,81.0,74.0,29.78,SSW,200,0.0,0.0,80,0.00,,,0.00,,2013-09-02 03:22:00,
2013-09-01 23:56:00,81.0,75.0,29.78,SSW,201,0.0,1.0,81,0.00,,,0.00,,2013-09-02 03:56:00,